Voltar ao catálogo

STARLINK-37645

AtivoComunicaçõesVLEO
NORAD 69371·PAYLOAD·🇺🇸 United States

Lançado Jun 4, 2026 de Cape Canaveral Space Force Station

Loading…

Próximas Passagens (próximas 24 horas)

TLE

AtualizadoSource: CelesTrak SupGP

Época: Sep 14, 2026, 15:53 UTC

1 69371C 26123U   26257.66229167  .00069281  00000+0  20471-2 0  2579
2 69371  53.1582 169.1262 0001314 107.0513 194.9346 15.34353415    16

Acompanhe STARLINK-37645 em tempo real com AllMySat

Download on the App Store